{"data":{"norad_id":63929,"intl_designator":"2025-098D","name":"STARLINK-33989","alt_names":[],"object_type":"PAYLOAD","status":"ACTIVE","operator":null,"country":"US","launch_date":"2025-05-13","launch_site_code":"AFWTR","launch_vehicle":null,"mission":null,"orbit_class":"UNKNOWN","rcs_meters":null,"size_class":null,"mass_kg":null,"dimensions":null,"purposes":["comms"],"wikipedia_slug":null,"has_3d_model":false,"image_url":null,"decayed_at":null,"tle_current":{"epoch":"2026-09-20T21:59:11.199840Z","epoch_age_seconds":111175,"freshness":"FRESH","line1":"1 63929U 25098D   26263.91610185  .00006687  00000+0  23681-3 0  9992","line2":"2 63929  70.0009 139.9090 0001561 262.4217  97.6781 15.29589374 75873","mean_motion":15.29589374,"eccentricity":0.0001561,"inclination_deg":70.0009,"raan_deg":139.909,"arg_perigee_deg":262.4217,"mean_anomaly_deg":97.6781,"bstar":0.00023681,"rev_number":7587,"period_min":94.14291341697,"perigee_km":475.9688021432,"apogee_km":478.10898805765,"semimajor_km":6855.1758951004,"source":"CELESTRAK","updated_at":"2026-09-21T09:00:35.149358Z"}}}